Weather History for Miami, FL

Change the Weather History Date:

Wednesday, August 21, 2013

  Actual Average Record
Temperature  
Mean Temperature 84 °F 84 °F  
Max Temperature 90 °F 91 °F 97 °F (1993)
Min Temperature 77 °F 77 °F 70 °F (1841)
Degree Days  
Heating Degree Days 0 0  
Month to date heating degree days 0 0  
Since 1 June heating degree days 0 0  
Since 1 July heating degree days 0 0  
Cooling Degree Days 19 19  
Month to date cooling degree days 411 407  
Year to date cooling degree days 2955 2887  
Since 1 June cooling degree days 1510 1531  
Growing Degree Days 34 (Base 50)    
Moisture  
Dew Point 75 °F    
Average Humidity 80    
Maximum Humidity 91    
Minimum Humidity 68    
Precipitation  
Precipitation 0.65 in 0.29 in 2.22 in (1957)
Month to date precipitation 3.10 5.77  
Year to date precipitation 41.35 37.29  
Snow  
Snow 0.00 in - - ()
Month to date snowfall 0.0  
Since 1 June snowfall 0.0  
Since 1 July snowfall 0.0  
Snow Depth 0.00 in    
Sea Level Pressure  
Sea Level Pressure 30.04 in    
Wind  
Wind Speed 9 mph (East)    
Max Wind Speed 25 mph    
Max Gust Speed 31 mph    
Visibility 10 miles    
Events Rain , Thunderstorm    
T = Trace of Precipitation, MM = Missing Value Source: NWS Daily Summary

Daily Weather History Graph

Daily Weather History Graph

Search for Another Location

Airport:

Trip Planner

Search our weather history database for the weather conditions in past years. The results will help you decide how hot, cold, wet, or windy it might be!

Date:

Astronomy

Aug. 21, 2013 Rise Set
Actual Time 6:57 AM EDT 7:51 PM EDT
Civil Twilight 6:33 AM EDT 8:14 PM EDT
Nautical Twilight 6:05 AM EDT 8:42 PM EDT
Astronomical Twilight 5:36 AM EDT 9:11 PM EDT
Moon 8:11 PM EDT (8/21) 7:25 AM EDT (8/21)
Length of Visible Light 13h 41m
Length of Day
12h 54m
Full, 100% of the Moon is Illuminated
Aug 21
Full
Aug 28
Last Quarter
Sep 5
New
Sep 12
First Quarter
Sep 19
Full

Hourly Weather History & Observations

Time (EDT) Temp. Heat Index Dew Point Humidity Pressure Visibility Wind Dir Wind Speed Gust Speed Precip Events Conditions
12:53 AM 84.0 °F 92.6 °F 75.9 °F 76% 30.05 in 10.0 mi ENE 8.1 mph - N/A   Mostly Cloudy
1:22 AM 78.8 °F - 73.4 °F 83% 30.05 in 10.0 mi East 8.1 mph - 0.03 in Rain , Thunderstorm Light Thunderstorms and Rain
1:53 AM 78.1 °F - 73.0 °F 84% 30.05 in 10.0 mi East 11.5 mph - 0.03 in Rain , Thunderstorm Light Thunderstorms and Rain
2:36 AM 78.8 °F - 73.4 °F 83% 30.04 in 10.0 mi East 5.8 mph - 0.00 in Rain Light Rain
2:53 AM 79.0 °F - 73.9 °F 84% 30.03 in 10.0 mi East 5.8 mph - 0.00 in   Mostly Cloudy
3:53 AM 79.0 °F - 75.0 °F 88% 30.02 in 10.0 mi Calm Calm - 0.01 in   Mostly Cloudy
4:53 AM 80.1 °F 85.4 °F 75.9 °F 87% 30.02 in 10.0 mi Calm Calm - 0.00 in   Mostly Cloudy
5:25 AM 80.6 °F 87.1 °F 77.0 °F 89% 30.03 in 10.0 mi Calm Calm - 0.00 in   Mostly Cloudy
5:53 AM 79.0 °F - 77.0 °F 94% 30.03 in 9.0 mi Calm Calm - 0.26 in Rain Light Rain
6:35 AM 78.8 °F - 75.2 °F 89% 30.04 in 6.0 mi East 6.9 mph - 0.04 in Rain Heavy Rain
6:53 AM 80.1 °F 85.4 °F 75.9 °F 87% 30.04 in 10.0 mi Variable 4.6 mph - 0.09 in Rain , Thunderstorm Light Thunderstorms and Rain
7:06 AM 78.8 °F - 75.2 °F 89% 30.04 in 10.0 mi SSE 10.4 mph - 0.00 in Rain , Thunderstorm Light Thunderstorms and Rain
7:28 AM 78.8 °F - 75.2 °F 89% 30.04 in 10.0 mi SE 5.8 mph - 0.02 in Rain Light Rain
7:53 AM 79.0 °F - 75.9 °F 90% 30.04 in 10.0 mi East 4.6 mph - 0.02 in Rain Light Rain
8:21 AM 78.8 °F - 75.2 °F 89% 30.06 in 10.0 mi SE 3.5 mph - 0.00 in Rain Light Rain
8:51 AM 78.8 °F - 75.2 °F 89% 30.06 in 10.0 mi ENE 3.5 mph - 0.04 in   Overcast
8:53 AM 79.0 °F - 75.0 °F 88% 30.06 in 10.0 mi Calm Calm - 0.04 in   Overcast
9:53 AM 82.9 °F 92.8 °F 78.1 °F 85% 30.08 in 10.0 mi NNE 4.6 mph - N/A   Mostly Cloudy
10:48 AM 84.2 °F 92.3 °F 75.2 °F 74% 30.07 in 6.0 mi ESE 12.7 mph 24.2 mph N/A Rain Light Rain
10:53 AM 82.0 °F 90.2 °F 77.0 °F 85% 30.07 in 7.0 mi East 5.8 mph 24.2 mph 0.04 in Rain Light Rain
11:53 AM 88.0 °F 100.2 °F 77.0 °F 70% 30.07 in 10.0 mi East 13.8 mph - 0.01 in   Mostly Cloudy
12:53 PM 88.0 °F 97.5 °F 75.0 °F 65% 30.07 in 10.0 mi East 16.1 mph 25.3 mph N/A   Mostly Cloudy
1:53 PM 88.0 °F 98.5 °F 75.9 °F 67% 30.06 in 10.0 mi East 15.0 mph - 0.00 in   Mostly Cloudy
2:53 PM 81.0 °F 86.2 °F 73.9 °F 79% 30.04 in 10.0 mi SSE 9.2 mph 29.9 mph 0.05 in Rain Heavy Rain
3:53 PM 88.0 °F 100.2 °F 77.0 °F 70% 30.02 in 10.0 mi ESE 16.1 mph 27.6 mph 0.01 in   Mostly Cloudy
4:53 PM 88.0 °F 98.5 °F 75.9 °F 67% 30.01 in 10.0 mi ESE 17.3 mph 23.0 mph N/A   Mostly Cloudy
5:53 PM 87.1 °F 96.3 °F 75.0 °F 67% 30.01 in 9.0 mi East 20.7 mph 28.8 mph N/A   Mostly Cloudy
5:56 PM 84.2 °F 92.3 °F 75.2 °F 74% 30.00 in 8.0 mi ESE 11.5 mph 28.8 mph 0.00 in Rain Light Rain
6:44 PM 84.2 °F 92.3 °F 75.2 °F 74% 30.00 in 10.0 mi East 16.1 mph 21.9 mph 0.00 in   Mostly Cloudy
6:53 PM 84.9 °F 94.1 °F 75.9 °F 74% 30.00 in 10.0 mi East 15.0 mph - 0.00 in   Mostly Cloudy
7:16 PM 84.2 °F 92.3 °F 75.2 °F 74% 30.01 in 10.0 mi East 13.8 mph - N/A   Mostly Cloudy
7:53 PM 82.9 °F 88.8 °F 73.0 °F 72% 30.02 in 10.0 mi East 9.2 mph - 0.00 in   Mostly Cloudy
8:51 PM 84.2 °F 92.3 °F 75.2 °F 74% 30.04 in 10.0 mi ESE 10.4 mph - N/A   Mostly Cloudy
8:53 PM 84.0 °F 92.6 °F 75.9 °F 76% 30.04 in 10.0 mi ESE 11.5 mph - N/A   Mostly Cloudy
9:45 PM 84.2 °F 92.3 °F 75.2 °F 74% 30.05 in 10.0 mi ESE 9.2 mph - N/A   Mostly Cloudy
9:53 PM 84.0 °F 92.6 °F 75.9 °F 76% 30.06 in 10.0 mi East 10.4 mph - N/A   Mostly Cloudy
10:53 PM 84.0 °F 92.6 °F 75.9 °F 76% 30.06 in 10.0 mi East 10.4 mph - N/A   Mostly Cloudy
11:10 PM 84.2 °F 92.3 °F 75.2 °F 74% 30.06 in 10.0 mi East 10.4 mph - N/A Thunderstorm Thunderstorm
11:53 PM 80.1 °F 85.4 °F 75.9 °F 87% 30.08 in 10.0 mi Variable 3.5 mph - 0.09 in Thunderstorm Thunderstorm